Temp
-11 -11 -11 -11 -11 -11 -11 -11 -11 -11 -10 -10 -10 -10 -10 -10 -10 -10 -10 -10 -10 -10 -10 -10 -10 -10 -10 -10 -10 -10 -10 -11 -11 -11 -11 -11 -11 -11 -11 -12 -12 -12 -12 -12
-11 -11 -11 -11 -11 -11 -11 -11 -11 -11 -11 -10 -10 -10 -10 -10 -10 -10 -10 -10 -10 -10 -10 -10 -11 -11 -11 -11 -11 -11 -11 -11 -11 -11 -12 -12 -12 -12 -12 -13 -13 -13 -13 -13
-11 -11 -11 -11 -11 -11 -11 -11 -11 -11 -11 -10 -10 -9 -10 -10 -10 -10 -10 -11 -11 -11 -11 -12 -11 -11 -11 -11 -11 -12 -12 -12 -12 -12 -13 -13 -13 -13 -13 -13 -13 -13 -13 -14
-11 -11 -12 -12 -12 -12 -11 -12 -11 -11 -11 -10 -10 -9 -9 -10 -10 -11 -11 -11 -11 -11 -12 -12 -12 -12 -12 -12 -12 -12 -12 -12 -13 -13 -13 -13 -13 -13 -13 -14 -14 -14 -14 -15
-11 -12 -12 -12 -12 -12 -11 -11 -11 -11 -11 -10 -10 -10 -9 -11 -11 -11 -11 -12 -12 -12 -12 -12 -12 -12 -12 -12 -12 -13 -13 -13 -13 -13 -13 -14 -14 -14 -14 -14 -14 -15 -15 -15
-12 -12 -12 -12 -12 -12 -12 -12 -11 -11 -11 -10 -10 -11 -9 -11 -12 -11 -12 -12 -12 -12 -13 -13 -13 -13 -13 -13 -13 -13 -13 -14 -14 -14 -14 -14 -15 -15 -15 -15 -15 -15 -16 -16
-13 -13 -13 -12 -13 -13 -12 -12 -12 -12 -11 -10 -10 -11 -10 -11 -12 -12 -12 -12 -12 -13 -13 -13 -13 -13 -13 -13 -13 -13 -14 -14 -14 -15 -15 -15 -16 -16 -16 -16 -17 -17 -17 -17
-14 -13 -13 -13 -13 -13 -13 -12 -12 -12 -11 -11 -11 -10 -11 -11 -12 -12 -13 -13 -13 -13 -13 -13 -13 -13 -13 -14 -14 -15 -15 -15 -15 -16 -16 -16 -16 -16 -17 -17 -17 -18 -18 -18
-14 -13 -13 -13 -13 -13 -13 -12 -13 -13 -12 -12 -11 -11 -11 -11 -12 -13 -13 -13 -14 -14 -14 -13 -13 -14 -14 -15 -15 -15 -15 -16 -16 -16 -17 -17 -17 -17 -18 -18 -18 -18 -18 -19
-14 -13 -13 -13 -13 -13 -13 -13 -13 -13 -13 -12 -11 -11 -11 -12 -12 -13 -14 -14 -14 -14 -14 -14 -14 -15 -15 -15 -15 -15 -16 -16 -16 -17 -17 -18 -18 -18 -18 -19 -19 -19 -19 -20
-14 -14 -13 -13 -12 -13 -13 -13 -14 -14 -13 -13 -12 -11 -12 -12 -13 -13 -13 -14 -14 -14 -15 -15 -15 -15 -15 -15 -16 -16 -16 -17 -17 -18 -18 -18 -19 -19 -19 -20 -20 -20 -21 -22
-15 -14 -13 -13 -13 -13 -13 -13 -14 -13 -13 -13 -13 -12 -13 -13 -13 -14 -15 -15 -15 -15 -15 -16 -16 -16 -16 -16 -16 -16 -17 -17 -18 -18 -19 -19 -19 -20 -20 -21 -22 -22 -23 -23
-15 -14 -14 -13 -12 -12 -12 -13 -13 -14 -14 -13 -14 -12 -13 -13 -14 -15 -15 -15 -15 -16 -16 -16 -16 -17 -17 -17 -17 -17 -18 -18 -19 -19 -20 -20 -20 -21 -22 -23 -23 -24 -24 -24
-15 -15 -14 -13 -13 -14 -14 -14 -14 -14 -14 -13 -12 -13 -14 -14 -14 -15 -16 -16 -16 -16 -16 -17 -17 -17 -17 -17 -18 -18 -19 -19 -19 -20 -20 -21 -22 -23 -23 -24 -24 -24 -25 -25
-15 -14 -14 -14 -14 -14 -14 -14 -14 -14 -13 -14 -13 -14 -15 -16 -16 -16 -16 -16 -16 -17 -17 -17 -18 -18 -18 -18 -19 -20 -20 -20 -21 -21 -21 -23 -24 -24 -24 -25 -25 -26 -26 -26
-15 -14 -15 -14 -14 -14 -15 -14 -14 -14 -14 -14 -14 -14 -15 -16 -17 -17 -17 -17 -17 -18 -18 -18 -18 -19 -19 -20 -20 -20 -21 -21 -21 -22 -23 -24 -25 -25 -26 -26 -26 -27 -27 -27
-15 -15 -15 -14 -15 -15 -15 -13 -14 -14 -15 -15 -15 -15 -17 -17 -17 -17 -17 -18 -18 -18 -19 -19 -19 -20 -20 -20 -21 -21 -21 -22 -23 -24 -25 -25 -26 -26 -27 -27 -27 -27 -27 -28
-14 -15 -15 -15 -15 -15 -13 -14 -14 -15 -15 -15 -16 -17 -17 -18 -18 -18 -18 -18 -19 -19 -19 -19 -20 -20 -21 -21 -22 -22 -23 -24 -24 -25 -25 -26 -26 -27 -27 -28 -28 -28 -29 -29
-15 -15 -16 -16 -16 -16 -15 -14 -15 -16 -16 -17 -17 -17 -18 -18 -18 -18 -19 -19 -19 -19 -20 -20 -20 -21 -22 -23 -23 -24 -24 -25 -25 -26 -26 -26 -27 -27 -28 -28 -29 -30 -30 -31
-16 -17 -17 -16 -16 -16 -15 -16 -16 -17 -16 -17 -18 -18 -18 -18 -19 -19 -19 -19 -19 -20 -20 -21 -21 -22 -23 -23 -24 -25 -25 -26 -26 -26 -26 -27 -27 -28 -28 -29 -30 -31 -32 -32
-17 -17 -17 -17 -17 -17 -17 -17 -17 -17 -17 -18 -18 -19 -19 -19 -19 -19 -19 -19 -20 -20 -21 -22 -22 -23 -24 -24 -25 -25 -26 -26 -26 -27 -27 -27 -28 -29 -30 -31 -32 -32 -33 -33
-17 -17 -17 -18 -18 -18 -18 -18 -19 -19 -19 -19 -19 -19 -19 -19 -19 -20 -20 -20 -21 -21 -22 -22 -23 -24 -25 -25 -25 -26 -26 -27 -27 -27 -28 -28 -29 -30 -31 -32 -32 -33 -34 -34
-18 -18 -18 -19 -19 -19 -19 -19 -20 -20 -20 -20 -20 -20 -20 -20 -21 -21 -21 -21 -21 -22 -23 -24 -24 -24 -25 -26 -26 -26 -27 -27 -28 -28 -29 -30 -31 -32 -32 -33 -33 -34 -34 -35
-19 -19 -20 -20 -20 -20 -20 -21 -21 -21 -21 -21 -21 -21 -21 -21 -21 -21 -22 -22 -23 -24 -24 -25 -25 -25 -26 -27 -27 -27 -28 -28 -29 -29 -30 -31 -31 -32 -33 -33 -34 -34 -35 -35
-21 -21 -20 -21 -21 -21 -22 -22 -22 -22 -22 -22 -22 -22 -22 -22 -22 -23 -23 -24 -24 -25 -26 -26 -26 -27 -27 -27 -28 -28 -29 -29 -30 -30 -31 -31 -32 -32 -33 -34 -34 -35 -35 -36
-21 -22 -22 -22 -22 -22 -23 -23 -23 -23 -23 -23 -23 -23 -23 -23 -24 -24 -25 -25 -26 -26 -27 -27 -28 -28 -28 -28 -29 -29 -30 -30 -31 -32 -32 -33 -33 -33 -34 -34 -35 -35 -36 -36
Height
5832 5833 5836 5833 5831 5833 5834 5835 5836 5836 5832 5832 5833 5834 5834 5833 5832 5831 5830 5830 5829 5828 5828 5827 5827 5826 5826 5825 5824 5822 5821 5819 5819 5817 5816 5814 5812 5810 5807 5806 5804 5801 5799 5797
5824 5825 5826 5825 5825 5825 5827 5827 5829 5828 5825 5823 5824 5826 5826 5826 5825 5825 5824 5824 5822 5821 5820 5820 5820 5820 5819 5819 5818 5816 5813 5810 5808 5807 5806 5804 5802 5799 5797 5795 5792 5789 5785 5783
5813 5816 5817 5817 5817 5817 5818 5818 5820 5818 5817 5814 5815 5816 5819 5817 5817 5816 5816 5816 5815 5815 5815 5814 5812 5811 5811 5810 5810 5809 5809 5808 5806 5803 5799 5796 5794 5790 5786 5782 5779 5775 5771 5768
5803 5808 5809 5809 5809 5809 5807 5810 5809 5808 5807 5805 5807 5803 5810 5810 5809 5809 5809 5808 5807 5805 5804 5804 5804 5804 5802 5802 5802 5800 5798 5796 5794 5793 5791 5789 5783 5779 5775 5772 5768 5764 5760 5756
5797 5798 5799 5800 5803 5799 5798 5800 5799 5798 5796 5794 5795 5797 5797 5801 5802 5801 5800 5799 5798 5797 5796 5795 5795 5795 5794 5793 5792 5790 5788 5786 5783 5779 5777 5774 5771 5768 5764 5759 5755 5751 5746 5741
5786 5788 5789 5790 5791 5790 5788 5789 5789 5787 5785 5781 5788 5788 5784 5793 5793 5792 5791 5790 5789 5788 5787 5786 5786 5785 5784 5783 5781 5778 5778 5775 5772 5767 5763 5761 5758 5754 5750 5746 5740 5735 5731 5726
5776 5778 5778 5779 5780 5780 5780 5780 5777 5775 5773 5775 5777 5777 5777 5778 5782 5783 5782 5780 5779 5778 5777 5777 5776 5774 5773 5771 5769 5767 5764 5761 5757 5755 5751 5748 5743 5739 5733 5729 5725 5720 5716 5711
5763 5764 5766 5768 5769 5768 5767 5767 5767 5764 5765 5766 5765 5763 5768 5771 5771 5771 5771 5771 5771 5771 5769 5768 5766 5764 5762 5760 5758 5754 5749 5745 5741 5738 5734 5730 5727 5722 5717 5712 5708 5702 5697 5692
5751 5750 5751 5755 5756 5757 5756 5755 5761 5756 5754 5753 5754 5756 5758 5760 5761 5760 5760 5761 5761 5760 5758 5755 5752 5749 5746 5743 5740 5738 5735 5730 5726 5723 5719 5715 5711 5707 5701 5696 5689 5684 5679 5673
5737 5736 5738 5740 5743 5743 5744 5749 5746 5745 5745 5745 5744 5745 5747 5749 5748 5748 5749 5748 5747 5745 5742 5740 5737 5734 5731 5728 5725 5722 5720 5716 5712 5708 5703 5699 5695 5688 5683 5677 5671 5665 5659 5653
5725 5725 5727 5727 5729 5734 5734 5733 5735 5736 5735 5735 5735 5735 5735 5735 5736 5737 5736 5735 5733 5730 5727 5724 5721 5718 5716 5713 5710 5708 5706 5700 5696 5692 5687 5682 5675 5669 5662 5657 5651 5646 5639 5633
5713 5710 5711 5715 5717 5719 5719 5720 5722 5722 5727 5728 5725 5724 5722 5721 5722 5724 5722 5720 5718 5716 5714 5710 5706 5704 5702 5697 5694 5692 5688 5684 5679 5676 5669 5662 5655 5648 5641 5635 5629 5623 5618 5612
5701 5698 5699 5701 5704 5703 5706 5711 5714 5714 5714 5714 5712 5714 5710 5711 5712 5710 5708 5704 5702 5700 5697 5694 5692 5689 5685 5681 5678 5675 5671 5666 5662 5657 5651 5643 5635 5627 5620 5614 5608 5603 5598 5592
5685 5684 5687 5691 5694 5697 5697 5700 5701 5701 5699 5701 5700 5702 5698 5699 5697 5695 5692 5689 5686 5684 5681 5680 5678 5673 5669 5665 5661 5657 5653 5648 5644 5638 5631 5622 5614 5608 5601 5594 5588 5583 5576 5570
5668 5670 5673 5678 5681 5680 5682 5684 5685 5683 5688 5681 5690 5684 5685 5683 5682 5680 5675 5673 5671 5669 5669 5667 5663 5658 5653 5648 5644 5639 5634 5629 5624 5619 5611 5602 5595 5589 5581 5574 5568 5563 5556 5550
5653 5656 5658 5661 5665 5665 5663 5666 5667 5667 5668 5666 5668 5671 5670 5672 5665 5662 5658 5657 5655 5655 5653 5649 5646 5641 5635 5630 5626 5621 5617 5610 5604 5598 5590 5582 5576 5568 5561 5554 5548 5543 5536 5529
5640 5642 5643 5643 5648 5646 5639 5653 5651 5652 5651 5654 5649 5660 5656 5652 5649 5645 5643 5641 5641 5638 5635 5632 5628 5623 5618 5613 5609 5604 5595 5589 5583 5578 5571 5562 5555 5549 5543 5536 5529 5522 5515 5508
5624 5628 5626 5627 5628 5619 5630 5633 5634 5633 5635 5635 5636 5638 5637 5634 5631 5632 5629 5627 5624 5619 5617 5614 5610 5604 5599 5594 5589 5583 5577 5570 5563 5557 5551 5544 5537 5530 5524 5517 5508 5501 5494 5486
5606 5609 5609 5608 5608 5607 5608 5613 5615 5615 5619 5617 5618 5618 5617 5615 5612 5615 5614 5610 5608 5604 5600 5596 5591 5585 5580 5575 5570 5564 5558 5552 5545 5540 5532 5525 5519 5512 5505 5497 5488 5481 5474 5467
5592 5594 5596 5591 5589 5587 5596 5598 5598 5596 5597 5601 5602 5597 5597 5598 5597 5601 5594 5594 5590 5585 5581 5577 5573 5568 5562 5556 5552 5547 5540 5534 5529 5521 5514 5506 5500 5493 5485 5476 5469 5463 5456 5451
5578 5579 5579 5578 5576 5576 5583 5584 5582 5582 5590 5586 5583 5582 5581 5579 5579 5580 5578 5575 5572 5568 5563 5559 5554 5549 5544 5540 5535 5529 5522 5517 5509 5502 5495 5489 5480 5472 5466 5459 5452 5446 5441 5436
5564 5564 5565 5563 5562 5562 5567 5564 5565 5566 5563 5567 5568 5568 5567 5566 5564 5562 5560 5558 5554 5549 5545 5540 5537 5532 5526 5522 5517 5511 5505 5496 5489 5483 5476 5470 5463 5454 5448 5441 5436 5430 5425 5420
5546 5549 5549 5552 5550 5548 5546 5545 5544 5545 5545 5549 5551 5551 5550 5548 5547 5544 5542 5540 5535 5530 5525 5521 5520 5515 5509 5503 5498 5492 5484 5477 5471 5464 5457 5449 5443 5437 5432 5426 5420 5415 5409 5404
5531 5532 5533 5534 5534 5530 5527 5526 5527 5527 5530 5533 5536 5537 5535 5532 5530 5528 5525 5519 5516 5512 5507 5504 5501 5497 5490 5483 5478 5472 5466 5458 5452 5446 5440 5433 5427 5421 5416 5410 5405 5399 5393 5388
5518 5517 5519 5517 5513 5509 5506 5507 5507 5510 5515 5516 5517 5518 5516 5514 5511 5507 5504 5500 5497 5493 5488 5484 5480 5476 5471 5463 5459 5454 5448 5442 5435 5429 5424 5418 5412 5406 5400 5395 5389 5383 5377 5372
5505 5504 5500 5494 5491 5490 5486 5489 5489 5492 5494 5494 5497 5498 5497 5494 5490 5487 5485 5480 5477 5474 5469 5465 5459 5455 5452 5447 5441 5436 5431 5425 5419 5413 5408 5402 5397 5391 5385 5379 5373 5367 5361 5355
Wind_Speed
37 38 31 33 36 33 31 29 27 27 32 32 32 31 29 30 30 31 29 25 25 24 24 25 27 28 29 30 28 26 28 29 31 32 32 33 35 36 37 39 40 43 45 47
40 38 35 36 34 32 30 32 29 30 34 35 35 32 32 33 32 31 29 27 26 27 28 28 28 28 29 29 30 30 31 31 32 36 38 37 38 39 41 43 46 49 50 52
40 37 34 34 35 34 34 35 33 35 36 38 37 37 34 34 32 31 31 30 30 30 30 29 28 28 29 31 33 34 36 38 39 40 41 43 45 47 48 50 53 54 56 58
39 36 36 36 37 36 38 35 37 39 41 41 39 43 32 32 32 31 31 32 32 31 31 31 31 31 32 32 34 39 42 42 44 45 47 50 51 52 54 57 59 60 62 63
39 37 37 39 36 39 41 39 42 42 43 45 43 41 38 32 32 33 33 33 34 34 31 29 31 31 31 35 40 43 45 46 49 49 53 54 56 56 58 59 61 63 65 66
39 39 38 37 38 42 45 43 41 43 45 48 39 39 44 32 32 33 34 34 33 33 32 31 31 32 35 40 45 47 50 50 51 55 56 59 59 59 59 63 64 66 66 67
38 41 44 43 43 42 43 43 45 46 47 45 42 42 42 39 34 32 34 35 34 32 31 31 33 37 42 44 47 50 52 55 56 58 59 60 61 62 63 65 66 67 68 70
47 51 51 51 46 46 45 46 46 46 45 44 45 46 42 39 39 36 37 35 32 31 33 36 40 42 45 48 50 51 55 59 60 61 61 61 63 65 66 67 68 69 71 73
49 51 51 49 48 47 46 46 39 43 46 47 47 45 43 42 41 41 38 36 34 36 38 41 45 47 49 50 53 58 60 59 60 62 62 63 66 66 68 69 72 77 79 81
51 51 51 52 48 49 48 43 44 46 46 46 47 47 47 45 44 43 40 39 38 39 43 46 49 50 52 55 58 61 62 61 62 63 64 65 67 69 70 73 76 79 82 82
50 49 50 52 50 45 44 46 45 45 46 47 48 47 48 49 47 45 43 41 43 47 49 50 52 53 54 56 60 62 63 61 62 65 67 68 70 73 75 78 80 82 82 80
50 51 53 53 49 45 47 48 48 50 47 46 48 49 52 51 50 48 47 47 49 52 54 54 56 56 55 58 61 62 62 63 65 67 70 73 75 78 80 81 80 80 80 79
44 48 49 52 53 53 51 45 46 48 48 50 54 50 54 51 49 51 51 53 54 56 59 61 60 59 62 63 63 65 66 66 68 70 73 76 79 81 82 81 79 79 79 79
48 49 50 51 51 49 49 47 47 50 53 53 54 55 56 53 53 55 56 58 59 61 63 61 62 65 64 63 65 66 68 69 72 75 77 79 80 80 79 78 79 79 80 80
48 52 51 52 54 56 55 55 54 58 56 63 59 63 58 56 56 60 61 63 65 64 63 64 67 68 65 66 67 68 71 73 76 79 80 80 78 78 77 79 80 80 81 81
57 56 55 55 57 61 65 63 62 64 65 66 66 66 64 56 55 61 65 65 65 64 65 69 70 67 66 67 69 72 74 76 79 78 76 75 74 76 76 78 80 80 81 81
54 56 56 59 59 63 70 65 67 66 66 66 67 60 61 57 59 65 66 66 66 68 69 69 72 70 68 69 71 73 75 78 76 74 72 73 74 77 78 79 80 82 83 82
63 61 61 59 59 72 69 70 71 70 66 65 64 62 57 60 63 65 67 67 69 70 71 71 71 68 69 72 72 74 74 73 71 70 73 76 77 79 79 80 83 82 81 79
59 56 57 63 66 69 69 71 70 66 63 63 61 59 61 65 65 65 67 71 73 72 70 69 70 70 71 71 71 70 69 69 71 73 75 78 80 80 82 82 80 77 73 68
54 60 69 71 72 72 68 69 70 70 69 65 61 61 64 64 66 65 68 68 68 70 71 70 70 69 70 69 69 67 68 69 72 76 78 80 80 77 76 75 72 67 64 62
58 56 56 56 59 61 60 62 66 66 64 63 62 61 62 64 66 67 68 70 71 71 71 69 67 67 66 66 65 66 70 73 76 77 73 71 73 72 70 65 63 60 59 57
60 62 61 60 60 62 60 59 59 58 61 61 62 63 65 67 68 70 70 70 71 70 68 66 65 64 66 67 68 70 73 72 68 68 68 69 68 64 60 60 60 59 58 58
62 61 59 57 55 56 57 58 59 58 60 60 61 63 65 68 70 71 72 69 68 68 65 63 63 65 68 69 71 70 63 64 64 65 65 64 61 59 59 59 58 59 59 59
49 49 51 53 56 59 58 57 58 60 62 62 62 63 67 70 70 68 67 67 64 63 63 65 67 68 69 68 61 60 60 61 61 60 60 59 59 60 59 59 59 59 60 59
49 50 52 56 58 61 65 65 65 65 66 66 66 66 67 66 65 64 63 62 62 63 64 66 67 64 58 59 59 59 58 58 58 58 58 59 60 62 62 62 61 61 61 62
55 55 60 64 68 69 69 67 67 66 66 66 67 64 63 62 61 61 60 61 63 64 66 64 58 56 57 58 58 57 56 56 57 57 57 59 60 61 62 61 60 60 60 62
Wind_Direction
266 266 269 263 263 268 267 263 262 263 264 263 266 271 272 274 277 275 272 273 274 272 275 282 284 284 283 281 281 281 282 284 285 286 285 283 286 288 290 292 291 292 291 288
266 267 263 263 263 263 263 266 265 258 258 263 266 271 273 273 273 269 266 266 265 268 272 275 277 276 277 275 277 277 276 275 275 277 279 280 282 284 285 285 285 283 284 282
264 262 258 260 261 263 262 264 263 260 258 263 268 269 273 270 266 263 263 263 267 273 278 275 271 271 272 272 273 278 284 285 284 283 279 280 283 282 281 280 279 279 279 279
258 262 263 260 260 262 261 261 263 265 266 267 265 272 269 267 265 265 265 267 270 272 272 273 275 276 273 273 279 285 284 285 285 283 282 282 278 277 278 279 279 279 279 279
258 259 263 264 263 259 261 261 265 267 266 267 268 271 270 263 266 267 267 268 273 276 274 274 278 278 276 276 281 285 288 290 285 284 282 280 281 282 282 281 280 279 278 277
259 262 263 264 262 260 263 264 268 266 265 264 267 268 269 269 266 268 270 274 276 274 273 276 276 278 283 285 285 288 288 289 288 282 280 279 280 281 281 282 281 280 279 279
261 262 262 263 267 266 264 267 268 265 263 268 268 264 269 272 272 269 271 273 274 273 273 276 276 278 280 282 286 290 294 294 290 287 283 283 285 287 287 286 284 284 282 281
265 266 263 261 265 265 264 261 261 263 266 266 265 267 270 272 277 276 273 273 271 272 274 273 276 278 281 285 287 290 294 294 292 290 290 290 290 290 289 288 287 285 284 284
265 268 263 259 261 261 263 263 264 263 263 266 269 271 274 277 278 278 280 278 275 276 277 277 279 284 290 293 296 297 293 291 290 292 291 291 291 291 289 288 287 285 285 285
267 268 262 259 259 258 258 259 257 260 264 269 270 273 277 279 278 281 281 278 277 277 277 279 283 288 291 294 298 298 296 296 295 292 292 291 291 290 290 289 288 287 286 287
263 265 260 260 260 260 258 257 259 261 262 267 272 279 280 278 278 282 286 282 281 280 281 284 286 288 291 296 297 297 295 294 293 293 293 293 292 291 291 289 287 287 288 289
259 263 258 260 259 252 247 251 253 257 265 270 272 272 276 279 280 288 288 283 280 281 283 284 286 290 291 292 294 295 293 294 295 294 295 295 293 291 289 289 289 289 291 292
256 259 258 255 254 252 254 261 266 265 265 266 265 276 281 284 284 283 285 282 284 284 283 286 290 291 292 295 295 295 296 296 295 296 293 291 290 289 289 290 292 293 294 294
257 256 256 258 261 259 257 260 260 261 263 268 271 274 278 281 283 281 281 281 278 280 282 286 289 290 294 294 295 294 292 294 295 291 289 289 289 291 292 293 294 294 294 294
260 257 265 263 257 257 258 259 261 262 270 267 275 273 273 271 274 276 276 277 279 281 282 287 288 291 293 293 292 290 292 293 291 289 289 290 292 294 293 293 293 294 294 294
263 267 262 260 261 258 257 260 266 265 268 269 270 274 275 276 274 270 271 278 277 279 284 287 290 290 291 290 290 291 291 289 289 290 291 293 292 291 293 293 293 294 295 296
259 261 263 263 262 260 258 262 269 269 268 270 268 275 269 267 269 271 274 274 276 279 284 287 287 288 289 288 288 287 288 288 290 292 293 293 292 293 293 294 295 295 296 296
258 260 260 263 265 261 263 263 267 264 267 269 268 270 268 267 271 273 272 274 277 280 285 285 286 288 288 287 288 288 289 292 293 293 294 293 293 294 295 295 296 296 296 296
260 263 265 265 263 265 266 268 266 262 264 263 265 263 264 269 273 275 275 277 280 285 285 285 287 288 288 286 287 290 291 291 292 292 291 292 294 294 295 295 295 296 297 296
253 255 256 254 254 253 264 261 260 261 260 261 264 268 270 272 273 276 277 282 284 285 285 286 287 286 284 287 289 289 290 290 290 290 292 293 295 295 295 295 297 297 295 295
246 243 247 253 255 258 261 262 261 260 264 265 266 270 272 274 275 277 279 281 282 283 285 285 283 283 285 286 288 289 289 289 289 291 294 295 296 296 296 297 297 296 296 296
248 251 255 257 260 264 265 265 264 264 263 266 270 275 277 277 278 277 279 281 283 283 282 282 283 284 285 287 288 288 289 289 291 295 296 296 295 297 298 297 297 297 297 296
252 255 261 263 265 263 263 266 268 271 273 275 275 275 276 274 275 276 279 281 281 280 279 281 282 284 284 286 288 289 289 292 296 297 296 296 296 298 297 297 296 296 295 294
254 256 257 257 254 258 266 268 270 271 272 274 276 276 277 275 277 280 280 278 278 280 281 282 282 284 287 289 289 291 294 295 296 295 294 295 295 295 295 295 295 295 294 294
260 259 259 258 264 270 271 271 271 273 275 276 276 278 279 279 278 276 278 280 281 281 282 284 287 290 290 291 292 294 295 295 295 294 294 294 294 294 294 294 293 293 295 297
264 265 267 269 271 274 275 275 276 277 278 278 278 277 276 276 276 279 282 282 282 284 286 289 291 291 291 292 293 293 293 293 292 292 292 292 292 292 293 293 295 297 299 300